Погода в Жлобине

Хотите узнать прогноз погоды в Жлобине? Тогда Вам сюда: Погода в Жлобине

Поиск расширенной информации на нашем сайте:

Полезная информация:

Новости сайта



02.01.2020
Опубликован Долгосрочный прогноз погоды по городам России и ближнего зарубежья на январь 2020 года.
Карты: Прогноз на январь и февраль 2020 года, Сравнение прогнозируемой аномалии приземной температуры воздуха на январь 2020 года по разным моделям.




Погода в Жлобине - сегодня

Время (UTC), дата Ветер
(°,м/с) 
Видим.   Явления Облачность Т
(°С)
Тd
(°С)
f(%) Тe
(°С)
Pmin
(гПа)
dP
(гПа)
Po
(мм)
O2
(г/м3)
Тmin Tmax R s Состояние
почвы
12 22.10.21 290 (З) 5-13{14}  35000 м    6/6 1000 м 
[Sc]
+12.4 -0.2 42 +12  1006.2  1.8  742  286           
15 22.10.21 250 (З) 3{13}  35000 м    5/4 1000 м верхняя 
[Sc|Ci fib]
+10.1 -0.7 47 +10  1007.3  0.9  743  289           
18 22.10.21 220 (ЮЗ) 35000 м    8/0 верхняя 
[Ci fib]
+7.1 -0.8 57 +8  1008.3  0.8  743  292    +12.7       
21 22.10.21 220 (ЮЗ) 35000 м    8/0 верхняя 
[Cs]
+6 -0.7 62 +7  1007.7  -0.7  743  293           
00 23.10.21 200 (Ю) 35000 м    ясно 
+5 -1 65 +5  1007.1  -0.6  742  294           
03 23.10.21 220 (ЮЗ) 35000 м    3/0 средняя 
[Ac trans]
+5 -1 65 +5  1006.9  -0.2  742  294           
06 23.10.21 260 (З) 35000 м    5/0 
[Sc]
+5.9 -0.4 64 +4  1008.7  1.8  744  293  +4.3         
09 23.10.21 260 (З) 4-10{12}  35000 м    8/8 600 м кучево-дожд. 
[Cb cap]
+8.3 +0.8 59 +7  1011.1  2.5  745  291           
12 23.10.21 290 (З) 4{12}  35000 м  {ливн. осадки}  8/8 600 м кучево-дожд. 
[Cb cap]
+9 +0.9 57 +8  1012.8  1.7  747  291           
15 23.10.21 250 (З) 3{11}  35000 м  {ливн. осадки}  6/4 1000 м средняя 
[Sc|Ac lent]
+6.1 +2.6 78 +5  1014.6  1.6  748  294           
18 23.10.21 260 (З) 35000 м  в посл. час ливневой дождь  9/9 600 м кучево-дожд. 
[Cb cap]
+6.1 +2.4 77 +5  1016.2  1.6  749  295    +9.2  0.0     
21 23.10.21 270 (З) 35000 м  {ливн. осадки}  6/6 1000 м 
[Sc]
+5.3 +2.3 81 +5  1017.3  750  296           
00 24.10.21 290 (З) 35000 м  {ливн. осадки}  8/8 1000 м 
[Sc]
+5.7 +3 83 +5  1018.6  1.3  751  296           
03 24.10.21 310 (СЗ) 35000 м  {ливн. осадки}  9/9 600 м кучево-дожд. 
[Cb cap]
+4.6 +1.8 82 +4  1020.3  1.6  752  298           
06 24.10.21 300 (СЗ) 35000 м  {ливн. осадки}  9/9 300 м 
[St]
+4.4 +1.8 83 +3  1022.6  2.3  754  299  +4.2    0.0     
09 24.10.21 310 (СЗ) 35000 м    9/9 600 м кучево-дожд. 
[Cb cap]
+5.7 +0 67 +5  1025.2  2.6  756  298           
12 24.10.21 310 (СЗ) 4-10  35000 м    9/9 600 м кучево-дожд. 
[Cb cap]
+5.4 -1.5 61 +4  1027.1  1.9  757  299           
15 24.10.21 310 (СЗ) 2{10}  35000 м    8/6 600 м средняя 
[Sc|Ac trans]
+3.9 -2.9 61 +3  1028.9  1.6  758  302           
18 24.10.21 тихо ()   35000 м    9/9 600 м 
[Sc]
+1.3 -2.1 78 +1  1030.5  1.4  759  305    +6.1       
21 24.10.21 тихо ()   35000 м    4/0 средняя 
[Ac trans]
-0.5 -3.4 81 -1  1031.7  1.1  760  307           
00 25.10.21 300 (СЗ) 35000 м    ясно 
-1.4 -3.6 85 -1  1032.6  0.8  761  309           
03 25.10.21 290 (З) 35000 м    ясно 
-2.4 -3.7 91 -2  1033.3  0.6  761  310           
06 25.10.21 тихо ()   8000 м  дымка  3/0 верхняя 
[Ci fib]
-1.8 -2.9 92 -2  1033.9  0.7  762  309  -3.6         
09 25.10.21 250 (З) 35000 м    ясно 
+5.2 -0.6 66 +5  1033.9  0.4  762  301           
12 25.10.21 270 (З) 35000 м    ясно 
+7.8 -0.7 55 +8  1032.1  -1.6  761  298           
Время (UTC), дата Ветер
(°,м/с) 
Видим.   Явления Облачность Т
(°С)
Тd
(°С)
f(%) Тe
(°С)
Pmin
(гПа)
dP
(гПа)
Po
(мм)
O2
(г/м3)
Тmin Tmax R s Состояние
почвы

Для получения пояснительной информации подведите курсор к названию столбца.

ПОГОДА в Жлобине - архив

Всё, что Вы хотите узнать о погоде в Жлобине - удобно и подробно!

Выберите нужную дату (начиная с 1 января 2019* года) и нажмите кнопку "Найти".
Будут отображены архивные сводки погоды по пункту Жлобин, начиная с указанной даты.


Отображать данные в формате CSV (для использования в таблицах Excel)


Внимание! Наш архив погоды предназначен исключительно для личного некоммерческого использования в познавательных целях. Если Вам необходимы официальные справки о состоянии погоды (для производственных, юридических, коммерческих и т.п. целей), обращайтесь в органы Росгидромета.

*Примечание: данная дата относится к архиву по метеостанциям СССР (Россия, СНГ, Балтия).
Архив по метеостанциям Зарубежной Европы и Азии (кроме Китая) хранится 10 дней, по другим регионам земного шара (Китай, Африка, Америка, Австралия, Океания) - 1 день.

Жлобин - район местоположения метеостанции


Название, широта, долгота, высота метеостанции:
Жлобин 52.9°ш. 30°д. 142 м над ур. моря [Беларусь]

Дополнительная информация

В oтличие oт бoльшинства пoгoдных сайтoв мы публикуем пoдрoбную метеoинфoрмацию в детальнoм прoфессиoнальнoм фoрмате.

Характеристики температуры и влажнoсти вoздуха измеряются на высoте 2 м в тени вдали oт зданий и деревьев.
Скoрoсть ветра измеряется на высoте 10 м (на урoвне рoста челoвека скoрoсть ветра ниже в 1.5-2 раза). Если метеoстанция нахoдится в гoрoде или в лесу, тo скoрoсть ветра занижена на 2-4 м/с пo сравнению с oткрытым местoм. Скoрoсть ветра над акватoриями крупных рек и oзёр, а также на вершинах хoлмoв на 2-5 м/с выше, чем в oбычных услoвиях.
Атмoсфернoе давление в разных тoчках местнoсти мoжет значительнo oтличаться oт давления на метеoстанции, в зависимoсти oт услoвий рельефа (при пoдъёме на 10 м давление пoнижается примернo на 1 мм рт.ст.).